Find Kosmos-2477

NORAD ID: 37869 Int'l Des: 2011-064 Owner: KVR/IACG Country: RU Constellation: GLONASS operational
MEOCIRCULAR

Live-Position

3D-Globus wird geladen...

Über Kosmos-2477

Beschreibung wird geladen...

Nächste Überflüge

Passes for default location (London). Set your location on the main map for personalized predictions.

Höhenverlauf

Loading altitude history...

Zweizeiliger Elementsatz

1 37869U 11064C 26125.24119074 -.00000004 00000-0 00000+0 0 9993
2 37869 65.2606 74.4202 0027042 255.3080 218.2182 2.13101806112850
Epoch: 5. Mai 2026 • Age: 6 hours

Aktueller Status

Höhe 19111.9 km
Geschwindigkeit 3.96 km/s
Subsatellitenpunkt -36.24°S, 8.01°E
Startdatum 4. Nov. 2011
Alter 14.4 years
Typ other

Technische Details

Klassifizierung Payload
Masse 1450.00 kg
Trockenmasse 1200.00 kg
Gesamtmasse 1450.00 kg
Länge 4.00 m
Durchmesser 1.50 m
Spannweite 7.80 m
Form Cyl + Ant + 2 Pan
Hersteller RESH
Bus-Typ Uragan
Phasenstatus In Orbit
Besitzer/Staat KVR/IACG/RU

Most Searched